Hourly Weather Rudniki

Today, 20 April, Tuesday

Time Temperature Precipitation Wind Pressure Humidity
00:00 -1°C° 0 mm 4 mps 753 mmHg 49%
01:00 -2°C° 0 mm 4 mps 754 mmHg 50%
02:00 -2°C° 0 mm 4 mps 754 mmHg 51%
03:00 -3°C° 0 mm 4 mps 754 mmHg 51%
04:00 -3°C° 0 mm 4 mps 755 mmHg 51%
05:00 -3°C° 0 mm 4 mps 755 mmHg 48%
06:00 -2°C° 0 mm 5 mps 755 mmHg 44%
07:00 -2°C° 0 mm 5 mps 755 mmHg 40%
08:00 -2°C° 0 mm 6 mps 755 mmHg 36%
09:00 -1°C° 0 mm 6 mps 756 mmHg 33%
10:00 +2°C° 0 mm 6 mps 756 mmHg 29%
11:00 +3°C° 0 mm 6 mps 755 mmHg 28%
12:00 +5°C° 0 mm 5 mps 755 mmHg 28%
13:00 +6°C° 0 mm 5 mps 755 mmHg 27%
14:00 +6°C° 0 mm 5 mps 755 mmHg 27%
15:00 +7°C° 0 mm 4 mps 754 mmHg 27%
16:00 +7°C° 0 mm 4 mps 754 mmHg 26%
17:00 +8°C° 0 mm 3 mps 754 mmHg 31%
18:00 +7°C° 0 mm 3 mps 754 mmHg 35%
19:00 +6°C° 0 mm 2 mps 754 mmHg 39%
20:00 +5°C° 0 mm 2 mps 754 mmHg 41%
21:00 +5°C° 0 mm 2 mps 754 mmHg 43%
22:00 +5°C° 0 mm 1 mps 754 mmHg 45%
23:00 +3°C° 0 mm 2 mps 754 mmHg 47%

Tomorrow, 21 April, Wednesday

Time Temperature Precipitation Wind Pressure Humidity
00:00 +3°C° 0 mm 2 mps 754 mmHg 49%
01:00 +2°C° 0 mm 2 mps 754 mmHg 51%
02:00 +2°C° 0 mm 2 mps 754 mmHg 53%
03:00 +1°C° 0 mm 2 mps 755 mmHg 54%
04:00 +1°C° 0 mm 2 mps 755 mmHg 56%
05:00 0°C° 0 mm 3 mps 755 mmHg 53%
06:00 0°C° 0 mm 4 mps 755 mmHg 50%
07:00 +1°C° 0 mm 4 mps 755 mmHg 47%
08:00 +2°C° 0 mm 5 mps 755 mmHg 42%
09:00 +3°C° 0 mm 6 mps 755 mmHg 38%
10:00 +4°C° 0 mm 6 mps 755 mmHg 34%
11:00 +6°C° 0 mm 7 mps 754 mmHg 32%
12:00 +8°C° 0 mm 7 mps 754 mmHg 30%
13:00 +9°C° 0 mm 7 mps 753 mmHg 28%
14:00 +9°C° 0 mm 7 mps 753 mmHg 29%
15:00 +9°C° 0 mm 7 mps 753 mmHg 29%
16:00 +10°C° 0 mm 7 mps 753 mmHg 30%
17:00 +9°C° 0 mm 6 mps 753 mmHg 32%
18:00 +9°C° 0 mm 6 mps 753 mmHg 35%
19:00 +8°C° 0 mm 5 mps 753 mmHg 37%
20:00 +7°C° 0 mm 5 mps 753 mmHg 40%
21:00 +7°C° 0 mm 6 mps 753 mmHg 42%
22:00 +5°C° 0 mm 6 mps 753 mmHg 44%
23:00 +5°C° 0.1 mm 6 mps 753 mmHg 51%

Day after tomorrow, 22 April, Thursday

Time Temperature Precipitation Wind Pressure Humidity
00:00 +4°C° 0.1 mm 6 mps 753 mmHg 57%
01:00 +4°C° 0.1 mm 6 mps 753 mmHg 63%
02:00 +3°C° 0 mm 6 mps 753 mmHg 65%
03:00 +3°C° 0 mm 6 mps 753 mmHg 68%
04:00 +3°C° 0 mm 6 mps 753 mmHg 70%
05:00 +3°C° 0.1 mm 6 mps 753 mmHg 75%
06:00 +2°C° 0.1 mm 6 mps 753 mmHg 80%
07:00 +2°C° 0.1 mm 6 mps 753 mmHg 85%
08:00 +2°C° 0.2 mm 6 mps 754 mmHg 87%
09:00 +1°C° 0.2 mm 6 mps 754 mmHg 89%
10:00 +1°C° 0.2 mm 6 mps 754 mmHg 92%
11:00 +1°C° 0.5 mm 6 mps 754 mmHg 93%
12:00 +1°C° 0.5 mm 5 mps 754 mmHg 94%
13:00 +1°C° 0.5 mm 5 mps 754 mmHg 95%
14:00 +2°C° 0.3 mm 5 mps 754 mmHg 93%
15:00 +2°C° 0.3 mm 5 mps 754 mmHg 91%
16:00 +3°C° 0.3 mm 5 mps 754 mmHg 89%
17:00 +3°C° 0.1 mm 5 mps 754 mmHg 89%
18:00 +3°C° 0.1 mm 5 mps 754 mmHg 88%
19:00 +3°C° 0.1 mm 5 mps 754 mmHg 88%
20:00 +3°C° 0.4 mm 5 mps 754 mmHg 91%
21:00 +2°C° 0.4 mm 5 mps 754 mmHg 94%
22:00 +2°C° 0.4 mm 5 mps 754 mmHg 96%
23:00 +3°C° 0.8 mm 4 mps 754 mmHg 97%

23 April, Friday

Time Temperature Precipitation Wind Pressure Humidity
00:00 +3°C° 0.8 mm 4 mps 753 mmHg 97%
01:00 +2°C° 0.8 mm 3 mps 753 mmHg 97%
02:00 +2°C° 0.5 mm 3 mps 753 mmHg 97%
03:00 +2°C° 0.5 mm 3 mps 753 mmHg 97%
04:00 +2°C° 0.5 mm 3 mps 753 mmHg 97%
05:00 +4°C° 0.4 mm 2 mps 753 mmHg 97%
06:00 +4°C° 0.4 mm 2 mps 753 mmHg 97%
07:00 +5°C° 0.4 mm 1 mps 752 mmHg 98%
08:00 +5°C° 0 mm 2 mps 752 mmHg 93%
09:00 +6°C° 0 mm 2 mps 752 mmHg 88%
10:00 +7°C° 0 mm 2 mps 752 mmHg 83%
11:00 +8°C° 0 mm 2 mps 752 mmHg 74%
12:00 +10°C° 0 mm 3 mps 752 mmHg 66%
13:00 +11°C° 0 mm 3 mps 751 mmHg 58%
14:00 +11°C° 0 mm 3 mps 751 mmHg 58%
15:00 +12°C° 0 mm 3 mps 751 mmHg 58%
16:00 +12°C° 0 mm 3 mps 750 mmHg 58%
17:00 +12°C° 0 mm 2 mps 750 mmHg 61%
18:00 +12°C° 0 mm 2 mps 750 mmHg 64%
19:00 +10°C° 0 mm 2 mps 750 mmHg 68%
20:00 +9°C° 0 mm 2 mps 750 mmHg 73%
21:00 +8°C° 0 mm 3 mps 750 mmHg 78%
22:00 +8°C° 0 mm 3 mps 750 mmHg 83%
23:00 +7°C° 0.4 mm 3 mps 749 mmHg 86%

24 April, Saturday

Time Temperature Precipitation Wind Pressure Humidity
00:00 +7°C° 0.4 mm 2 mps 749 mmHg 89%
01:00 +7°C° 0.4 mm 2 mps 749 mmHg 92%
02:00 +7°C° 0.5 mm 2 mps 748 mmHg 93%
03:00 +6°C° 0.5 mm 2 mps 747 mmHg 94%
04:00 +6°C° 0.5 mm 2 mps 747 mmHg 95%
05:00 +6°C° 0.7 mm 2 mps 746 mmHg 94%
06:00 +6°C° 0.7 mm 2 mps 746 mmHg 94%
07:00 +6°C° 0.7 mm 2 mps 746 mmHg 94%
08:00 +6°C° 0.5 mm 2 mps 745 mmHg 93%
09:00 +5°C° 0.5 mm 3 mps 745 mmHg 92%
10:00 +5°C° 0.5 mm 3 mps 744 mmHg 92%
11:00 +5°C° 0.4 mm 3 mps 744 mmHg 92%
12:00 +5°C° 0.4 mm 3 mps 743 mmHg 92%
13:00 +5°C° 0.4 mm 3 mps 743 mmHg 92%
14:00 +6°C° 0.3 mm 2 mps 743 mmHg 92%
15:00 +6°C° 0.3 mm 2 mps 742 mmHg 93%
16:00 +6°C° 0.3 mm 2 mps 742 mmHg 94%
17:00 +6°C° 0.2 mm 2 mps 742 mmHg 94%
18:00 +6°C° 0.2 mm 2 mps 742 mmHg 95%
19:00 +6°C° 0.2 mm 2 mps 741 mmHg 96%
20:00 +6°C° 0.2 mm 2 mps 741 mmHg 96%
21:00 +6°C° 0.2 mm 2 mps 741 mmHg 96%
22:00 +5°C° 0.2 mm 2 mps 741 mmHg 97%
23:00 +5°C° 0.1 mm 2 mps 741 mmHg 96%

25 April, Sunday

Time Temperature Precipitation Wind Pressure Humidity
00:00 +5°C° 0.1 mm 2 mps 741 mmHg 96%
01:00 +5°C° 0.1 mm 2 mps 741 mmHg 95%
02:00 +5°C° 0 mm 2 mps 741 mmHg 95%
03:00 +5°C° 0 mm 2 mps 741 mmHg 94%
04:00 +6°C° 0 mm 1 mps 741 mmHg 93%
05:00 +7°C° 0 mm 1 mps 741 mmHg 90%
06:00 +6°C° 0 mm 2 mps 742 mmHg 87%
07:00 +6°C° 0 mm 2 mps 742 mmHg 84%
08:00 +8°C° 0 mm 3 mps 741 mmHg 80%
09:00 +8°C° 0 mm 4 mps 741 mmHg 76%
10:00 +9°C° 0 mm 5 mps 741 mmHg 71%
11:00 +10°C° 0.1 mm 6 mps 741 mmHg 69%
12:00 +12°C° 0.1 mm 7 mps 740 mmHg 66%
13:00 +13°C° 0.1 mm 8 mps 740 mmHg 63%
14:00 +12°C° 0.4 mm 8 mps 740 mmHg 62%
15:00 +12°C° 0.4 mm 8 mps 740 mmHg 62%
16:00 +11°C° 0.4 mm 8 mps 740 mmHg 61%
17:00 +10°C° 0 mm 8 mps 740 mmHg 59%
18:00 +9°C° 0 mm 7 mps 741 mmHg 58%
19:00 +8°C° 0 mm 7 mps 741 mmHg 56%
20:00 +7°C° 0 mm 6 mps 742 mmHg 61%
21:00 +5°C° 0 mm 6 mps 743 mmHg 66%
22:00 +5°C° 0 mm 5 mps 743 mmHg 71%
23:00 +3°C° 0 mm 5 mps 744 mmHg 72%
Show more